OBJECT A, 100749

Orbit data source: Space-Track

You're viewing an uncataloged RSO

Recently launched and/or uncataloged RSOs may have evolving metadata. Metadata may include the following, but is not limited to: Owner, Manufacturer, Bus, Motor, and Mission.

OBJECT A, 100749 is a satellite owned by Hangtian Hongtu (CN) in SSO that was launched on Sat, 19 Sep 2026 UTC launched from the Taiyaun Space Center, China (TSC). Unknown objects in Earth's orbit typically refer to objects detected orbiting the Earth but have not yet been identified or cataloged. These objects could be anything from previously untracked satellites, spent rocket stages, debris from satellite collisions, or even natural meteoroids temporarily captured by Earth's gravity.

Loading next visibility...
Identifier
100749, 2026-218A
Orbit
SSO
Country
Flag of CNCN / PRC
Related business
Manufacturer
Yinhe
Mission
Operational spacecraft
Bus & Motor
PIESAT, Unknown motor
Mass
270 kg wet, 270 kg dry
Launch date (UTC)
2026-09-19 (2 days ago)
Launch vehicle
Unknown
Launch site
Taiyaun Space Center, China (TSC)
Object type
Unknown
Shape & HBR
BOX + 2 PAN, 2.0 m
Radar Cross Section
RCS unknown

Expand to show TLE details & history
Last TLE update: 8 hours ago

TLE from 8 hours ago
0 OBJECT A
1 A0749U 26218A   26264.61157512  .00001415  00000-0  82851-4 0  9996
2 A0749  97.4915  90.5213 0010786 260.3116  99.6897 15.13401420   333
Epoch: 2026-09-21T14:40Z
TLE epoch observation values (Epoch: 2026-09-21T14:40:40.090Z)
Latitude
-0.00003°
Longitude
-130.13465°
Altitude
530.176 km
Speed
7.597 km/s
True Right ascension
06h 02m 05s
True Declination
0° 00' 00"
Sunlit
Object was in daylight at epoch
Visualization orbit readout
Latitude
Unknown
Longitude
Unknown
Altitude
Unknown
Speed
Unknown
Apparent Right ascension
Unknown
Apparent Declination
Unknown
Sunlit
N/A
Visualization observer readout
Local Sidereal Time
15:35:59
Azimuth
Unknown
Elevation
Unknown
Doppler factor
Unknown
Orbital elements
Apogee altitude
530.258 km
Perigee altitude
515.371 km
Semi-major axis
6,900.951 km
Eccentricity
0.00108
Inclination
97.4915°
RAAN
90.5213°
Arg. of periapsis
260.3116°
True anomaly
99.81151°
Mean anomaly
99.6897°
Eccentric anomaly
99.75061°
Mean motion
3.78599 °/min
Orbital period
95.09 mins
BSTAR
0.000082851
Loading maneuver chart data...
Computing Atmospheric mass density...
Loading historical data...
Loading historical data...
Loading historical data...
Loading historical data...
Loading historical data...
Loading historical data...
Loading historical data...
Other satellites on launch #218 in the year 2026 (2026-09-19 UTC)

Documentation

Showing up to 5 results
|